Tracking 28908 objects as of 20-May-2024
HD Live streaming from Space Station
objects crossing your sky now

STARLINK-6064

Track STARLINK-6064 now!
10-day predictions
STARLINK-6064 is classified as:


NORAD ID: 56805
Int'l Code: 2023-078AQ
Perigee: 576.9 km
Apogee: 581.6 km
Inclination: 70.0 °
Period: 96.1 minutes
Semi major axis: 6950 km
RCS: Unknown
Launch date: May 31, 2023
Source: United States (US)
Launch site: AIR FORCE WESTERN TEST RANGE (AFWTR)
Your satellite tracking list
Your tracking list is empty




NASA's NSSDC Master Catalog

Two Line Element Set (TLE):
1 56805U 23078AQ  24140.55782516 -.00001176  00000-0 -90782-4 0  9991
2 56805  69.9996 186.2902 0003371 269.2305  90.8468 14.98319148 54443
Source of the keplerian elements: AFSPC